"startDT [UTC]","vpos","CH4 [ppm]","stdev(CH4) [ppm]","CO2 [ppm]","stdev(CO2) [ppm]","H2O_reported [%]","stdev(H2O_reported)","CavityPressure [torr]","CavityTemp [C]","OutletValve","CH4_dry [ppm]","CO2_dry [ppm]","DasTemp [C]","EtalonTemp [C]","WarmBoxTemp [C]","MPVPosition","T_ECpre [C]","T_EC1 [C]","T_EC2 [C]","p_inlet [hPa]","p_in [hPa]","p_out [hPa]","T_inlet [C]","RH_inlet [%]","dwpt_inlet [C]","T_vent [C]","RH_vent [%]","dwpt_vent [C]","flow_vent [l min-1]","flow_inlet [l min-1]","dwpt_sample [C]","T_room [C]"
2015-01-08 00:00:00,0.0,1.96202,0.00035,406.794,0.035,0.0361,0.0010,140.000,45.000,29117.82878,1.96273,406.971,32.248,45.068,45.000,0.00,0.09,-272.67,-272.74,-7,191,-1,19.1,1.4,-35.2,19.5,2.3,-29.6,5.73,2.50,-22.4,25.4
2015-01-08 00:01:00,0.0,1.96177,0.00037,406.795,0.035,0.0372,0.0021,140.000,45.000,29120.65154,1.96246,406.976,32.254,45.068,45.000,0.00,0.09,-272.68,-272.75,-7,192,-1,19.1,1.4,-35.1,19.5,2.3,-29.6,5.73,2.40,-22.3,25.4
2015-01-08 00:02:00,0.0,1.96159,0.00038,406.822,0.038,0.0377,0.0021,139.998,45.000,29117.83510,1.96233,407.006,32.254,45.068,45.000,0.00,0.09,-272.68,-272.74,-7,192,-1,19.1,1.4,-34.9,19.5,2.3,-29.6,5.73,2.38,-22.4,25.4
2015-01-08 00:03:00,0.0,1.96147,0.00037,406.815,0.030,0.0386,0.0025,139.998,45.000,29117.65702,1.96224,407.005,32.271,45.068,45.000,0.00,0.09,-272.68,-272.75,-7,191,-1,19.1,1.4,-34.8,19.5,2.3,-29.5,5.73,2.35,-22.3,25.4
2015-01-08 00:04:00,0.0,1.96131,0.00035,406.826,0.033,0.0392,0.0021,139.999,45.000,29115.57633,1.96204,407.016,32.256,45.068,45.000,0.00,0.09,-272.69,-272.75,-6,191,-1,19.1,1.5,-34.6,19.5,2.3,-29.6,5.73,2.36,-22.4,25.4
2015-01-08 00:05:00,0.0,1.96141,0.00047,406.836,0.025,0.0386,0.0017,140.002,45.000,29116.95326,1.96218,407.025,32.253,45.068,45.000,0.00,0.09,-272.70,-272.74,-6,191,-1,19.1,1.5,-34.6,19.5,2.3,-29.5,5.73,2.36,-22.3,25.4
2015-01-08 00:06:00,0.0,1.96147,0.00042,406.843,0.022,0.0379,0.0015,140.001,45.000,29123.13853,1.96220,407.029,32.250,45.068,45.000,0.00,0.09,-272.69,-272.74,-6,191,-0,19.1,1.5,-34.7,19.5,2.3,-29.6,5.73,2.41,-22.4,25.4
2015-01-08 00:07:00,0.0,1.96147,0.00047,406.847,0.048,0.0383,0.0015,140.000,45.000,29117.51022,1.96221,407.033,32.253,45.068,45.000,0.00,0.09,-272.69,-272.74,-6,191,-1,19.1,1.4,-34.8,19.5,2.3,-29.5,5.73,2.46,-22.3,25.4
2015-01-08 00:08:00,0.0,1.96123,0.00050,406.886,0.048,0.0384,0.0018,140.000,45.000,29117.72532,1.96198,407.072,32.268,45.068,45.000,0.00,0.09,-272.70,-272.74,-6,192,-1,19.1,1.4,-34.8,19.5,2.3,-29.6,5.73,2.48,-22.3,25.4
2015-01-08 00:09:00,0.0,1.96102,0.00058,406.910,0.042,0.0403,0.0017,140.000,45.000,29119.47357,1.96178,407.109,32.284,45.068,45.000,0.00,0.09,-272.68,-272.74,-6,191,-1,19.1,1.5,-34.3,19.5,2.3,-29.6,5.73,2.49,-22.4,25.4
2015-01-08 00:10:00,0.0,1.96122,0.00046,406.870,0.034,0.0392,0.0018,139.999,45.000,29114.54210,1.96199,407.061,32.309,45.068,45.000,0.00,0.09,-272.68,-272.75,-6,191,-1,19.1,1.5,-34.5,19.5,2.3,-29.6,5.73,2.44,-22.4,25.4
2015-01-08 00:11:00,0.0,1.96169,0.00050,406.930,0.035,0.0392,0.0014,140.004,45.000,29120.52639,1.96240,407.122,32.286,45.067,45.000,0.00,0.09,-272.68,-272.75,-6,191,-1,19.1,1.5,-34.6,19.5,2.3,-29.6,5.73,2.40,-22.3,25.4
2015-01-08 00:12:00,0.0,1.96251,0.00037,406.913,0.030,0.0379,0.0015,139.999,45.000,29124.13617,1.96327,407.097,32.298,45.067,45.000,0.00,0.09,-272.68,-272.75,-6,192,-1,19.1,1.4,-34.7,19.5,2.3,-29.6,5.73,2.34,-22.3,25.4
2015-01-08 00:13:00,0.0,1.96172,0.00028,406.947,0.036,0.0369,0.0016,140.002,45.000,29127.58011,1.96245,407.127,32.312,45.068,45.000,0.00,0.09,-272.68,-272.75,-6,193,-1,19.1,1.4,-35.0,19.5,2.3,-29.6,5.73,2.32,-22.4,25.4
2015-01-08 00:14:00,0.0,1.96163,0.00033,406.976,0.041,0.0380,0.0014,139.999,45.000,29126.74503,1.96233,407.163,32.311,45.067,44.999,0.00,0.09,-272.69,-272.74,-6,193,-1,19.1,1.4,-35.0,19.5,2.3,-29.6,5.73,2.38,-22.4,25.4
2015-01-08 00:15:00,0.0,1.96152,0.00027,406.970,0.035,0.0381,0.0017,140.001,45.000,29123.79168,1.96229,407.155,32.311,45.068,45.000,0.00,0.09,-272.69,-272.75,-6,192,-1,19.1,1.4,-34.8,19.5,2.3,-29.6,5.73,2.39,-22.3,25.4
2015-01-08 00:16:00,0.0,1.96153,0.00035,406.962,0.042,0.0381,0.0018,139.997,45.000,29124.65935,1.96225,407.148,32.311,45.068,45.000,0.00,0.09,-272.68,-272.73,-6,192,-1,19.1,1.4,-34.8,19.5,2.3,-29.6,5.73,2.45,-22.3,25.4
2015-01-08 00:17:00,0.0,1.96180,0.00048,406.975,0.016,0.0371,0.0014,139.997,45.000,29123.78151,1.96249,407.156,32.274,45.068,45.000,0.00,0.09,-272.69,-272.74,-6,192,-1,19.0,1.4,-35.0,19.5,2.3,-29.6,5.73,2.49,-22.4,25.4
2015-01-08 00:18:00,0.0,1.96197,0.00038,407.005,0.037,0.0379,0.0014,139.999,45.000,29129.17245,1.96269,407.190,32.257,45.068,45.000,0.00,0.09,-272.69,-272.74,-6,193,-1,19.1,1.4,-35.0,19.5,2.3,-29.6,5.73,2.49,-22.4,25.4
2015-01-08 00:19:00,0.0,1.96207,0.00036,407.041,0.024,0.0378,0.0017,139.999,45.000,29128.45870,1.96281,407.225,32.261,45.068,45.000,0.00,0.09,-272.68,-272.75,-6,192,-1,19.1,1.4,-35.0,19.5,2.3,-29.6,5.73,2.46,-22.3,25.4
2015-01-08 00:20:00,0.0,1.96259,0.00047,407.028,0.023,0.0378,0.0019,140.001,45.000,29128.99445,1.96331,407.213,32.252,45.068,45.000,0.00,0.09,-272.68,-272.74,-6,193,-1,19.0,1.4,-35.1,19.5,2.3,-29.6,5.73,2.40,-22.4,25.4
2015-01-08 00:21:00,0.0,1.96284,0.00050,407.010,0.043,0.0370,0.0019,140.000,45.000,29130.88185,1.96356,407.193,32.255,45.068,45.000,0.00,0.09,-272.69,-272.75,-6,193,-1,19.0,1.4,-35.2,19.5,2.3,-29.5,5.73,2.35,-22.4,25.4
2015-01-08 00:22:00,0.0,1.96235,0.00049,407.006,0.040,0.0368,0.0016,140.001,45.000,29129.23431,1.96309,407.184,32.252,45.068,45.000,0.00,0.09,-272.69,-272.75,-6,192,-1,19.1,1.4,-35.3,19.5,2.3,-29.5,5.73,2.33,-22.4,25.4
2015-01-08 00:23:00,0.0,1.96263,0.00036,407.012,0.034,0.0374,0.0015,139.997,45.000,29126.21059,1.96332,407.195,32.250,45.068,45.000,0.00,0.09,-272.68,-272.74,-6,193,-1,19.1,1.4,-35.0,19.5,2.3,-29.5,5.73,2.33,-22.4,25.4
2015-01-08 00:24:00,0.0,1.96318,0.00049,407.002,0.020,0.0386,0.0019,140.001,45.000,29126.53347,1.96389,407.192,32.251,45.068,45.000,0.00,0.09,-272.68,-272.74,-7,193,-1,19.1,1.4,-34.8,19.5,2.3,-29.5,5.73,2.36,-22.4,25.4
2015-01-08 00:25:00,0.0,1.96314,0.00043,407.001,0.027,0.0377,0.0022,140.000,45.000,29129.23210,1.96386,407.184,32.250,45.068,45.000,0.00,0.09,-272.69,-272.74,-6,192,-1,19.0,1.4,-35.0,19.5,2.3,-29.5,5.73,2.42,-22.4,25.4
2015-01-08 00:26:00,0.0,1.96306,0.00036,407.006,0.037,0.0368,0.0022,140.001,45.000,29131.54395,1.96378,407.185,32.213,45.068,45.000,0.00,0.09,-272.69,-272.74,-6,193,-1,19.0,1.4,-35.2,19.5,2.3,-29.4,5.73,2.44,-22.4,25.4
2015-01-08 00:27:00,0.0,1.96320,0.00042,407.038,0.030,0.0369,0.0019,140.002,45.000,29127.39967,1.96390,407.220,32.191,45.068,45.000,0.00,0.09,-272.68,-272.74,-6,193,-1,19.1,1.4,-35.2,19.5,2.4,-29.4,5.73,2.47,-22.4,25.4
2015-01-08 00:28:00,0.0,1.96361,0.00056,407.036,0.030,0.0369,0.0019,139.997,45.000,29128.72725,1.96433,407.216,32.198,45.068,45.001,0.00,0.09,-272.69,-272.75,-6,193,-1,19.0,1.4,-35.0,19.5,2.3,-29.5,5.73,2.46,-22.3,25.4
2015-01-08 00:29:00,0.0,1.96402,0.00050,407.022,0.037,0.0370,0.0016,140.000,45.000,29128.97285,1.96473,407.204,32.208,45.068,45.000,0.00,0.09,-272.68,-272.75,-6,193,-1,19.1,1.4,-35.1,19.5,2.4,-29.4,5.73,2.44,-22.4,25.4
2015-01-08 00:30:00,0.0,1.96448,0.00050,407.047,0.030,0.0357,0.0013,140.000,45.000,29128.79142,1.96510,407.221,32.234,45.068,45.000,0.00,0.09,-272.68,-272.74,-6,193,-1,19.1,1.4,-35.2,19.5,2.3,-29.4,5.73,2.39,-22.4,25.4
2015-01-08 00:31:00,0.0,1.96456,0.00032,407.087,0.043,0.0357,0.0019,139.999,45.000,29128.20430,1.96529,407.262,32.245,45.068,45.000,0.00,0.09,-272.69,-272.75,-6,193,-1,19.1,1.4,-35.4,19.5,2.3,-29.5,5.73,2.38,-22.3,25.4
2015-01-08 00:32:00,0.0,1.96487,0.00029,407.179,0.028,0.0356,0.0015,140.002,45.000,29128.38967,1.96553,407.352,32.246,45.068,45.000,0.00,0.09,-272.69,-272.75,-6,192,-1,19.0,1.3,-35.5,19.5,2.4,-29.4,5.73,2.35,-22.3,25.4
2015-01-08 00:33:00,0.0,1.96454,0.00044,407.159,0.028,0.0360,0.0017,140.001,45.000,29131.42814,1.96526,407.335,32.211,45.068,45.000,0.00,0.09,-272.69,-272.75,-6,194,-0,19.1,1.3,-35.6,19.5,2.3,-29.5,5.73,2.35,-22.4,25.4
2015-01-08 00:34:00,0.0,1.96511,0.00051,407.177,0.027,0.0360,0.0027,139.997,45.000,29127.74496,1.96577,407.353,32.188,45.068,45.000,0.00,0.09,-272.69,-272.73,-6,193,-1,19.1,1.3,-35.4,19.5,2.3,-29.4,5.73,2.38,-22.3,25.4
2015-01-08 00:35:00,0.0,1.96445,0.00046,407.157,0.033,0.0355,0.0013,139.999,45.000,29131.83922,1.96516,407.331,32.192,45.068,45.000,0.00,0.09,-272.70,-272.74,-6,193,-1,19.1,1.3,-35.5,19.5,2.3,-29.4,5.73,2.42,-22.3,25.4
2015-01-08 00:36:00,0.0,1.96408,0.00038,407.149,0.029,0.0355,0.0017,140.001,45.000,29130.52698,1.96476,407.323,32.218,45.068,45.000,0.00,0.09,-272.69,-272.73,-6,192,-1,19.1,1.3,-35.4,19.5,2.3,-29.5,5.73,2.46,-22.4,25.4
2015-01-08 00:37:00,0.0,1.96450,0.00028,407.131,0.030,0.0357,0.0014,140.003,45.000,29133.52696,1.96518,407.306,32.231,45.068,45.000,0.00,0.09,-272.69,-272.74,-6,193,-1,19.1,1.3,-35.4,19.5,2.3,-29.5,5.73,2.48,-22.3,25.4
2015-01-08 00:38:00,0.0,1.96457,0.00031,407.142,0.032,0.0359,0.0016,140.003,45.000,29138.11393,1.96527,407.318,32.244,45.068,45.000,0.00,0.09,-272.68,-272.75,-6,194,-1,19.1,1.3,-35.6,19.5,2.3,-29.4,5.73,2.45,-22.3,25.4
2015-01-08 00:39:00,0.0,1.96434,0.00044,407.134,0.035,0.0357,0.0018,140.000,45.000,29138.64586,1.96505,407.309,32.247,45.068,45.000,0.00,0.09,-272.69,-272.75,-6,194,-1,19.1,1.3,-35.5,19.5,2.4,-29.4,5.73,2.42,-22.4,25.4
2015-01-08 00:40:00,0.0,1.96439,0.00037,407.137,0.036,0.0350,0.0019,139.999,45.000,29133.40039,1.96504,407.307,32.250,45.067,45.000,0.00,0.09,-272.68,-272.74,-6,193,-1,19.1,1.3,-35.5,19.5,2.3,-29.4,5.73,2.35,-22.3,25.4
2015-01-08 00:41:00,0.0,1.96613,0.00082,407.149,0.034,0.0336,0.0021,139.999,45.000,29133.72774,1.96670,407.312,32.250,45.068,45.000,0.00,0.09,-272.69,-272.75,-6,193,-1,19.1,1.3,-36.0,19.5,2.3,-29.5,5.73,2.32,-22.3,25.4
2015-01-08 00:42:00,0.0,1.96639,0.00072,407.164,0.034,0.0328,0.0018,140.000,45.000,29137.56920,1.96712,407.325,32.250,45.068,45.000,0.00,0.09,-272.69,-272.75,-6,193,-1,19.1,1.2,-36.3,19.5,2.4,-29.4,5.73,2.32,-22.3,25.4
2015-01-08 00:43:00,0.0,1.96497,0.00034,407.140,0.037,0.0339,0.0017,139.998,45.000,29132.24607,1.96560,407.306,32.250,45.068,45.000,0.00,0.09,-272.68,-272.74,-6,193,-1,19.1,1.2,-36.3,19.5,2.3,-29.5,5.73,2.37,-22.3,25.4
2015-01-08 00:44:00,0.0,1.96569,0.00062,407.131,0.026,0.0338,0.0013,140.001,45.000,29132.01256,1.96628,407.296,32.249,45.068,45.000,0.00,0.09,-272.69,-272.74,-7,193,-1,19.1,1.2,-36.2,19.5,2.3,-29.5,5.73,2.43,-22.3,25.4
2015-01-08 00:45:00,0.0,1.96543,0.00062,407.151,0.031,0.0347,0.0015,139.999,45.000,29129.69958,1.96613,407.320,32.245,45.068,45.000,0.00,0.09,-272.69,-272.75,-6,192,-1,19.1,1.3,-36.0,19.5,2.4,-29.4,5.73,2.47,-22.4,25.4
2015-01-08 00:46:00,0.0,1.96517,0.00033,407.144,0.028,0.0340,0.0011,140.001,45.000,29130.63928,1.96586,407.310,32.238,45.068,45.000,0.00,0.09,-272.69,-272.74,-6,193,-1,19.1,1.3,-36.0,19.5,2.4,-29.4,5.73,2.48,-22.3,25.4
2015-01-08 00:47:00,0.0,1.96494,0.00039,407.139,0.032,0.0344,0.0017,139.998,45.000,29132.94131,1.96562,407.307,32.243,45.068,45.000,0.00,0.09,-272.68,-272.74,-6,193,-1,19.1,1.3,-36.0,19.5,2.3,-29.4,5.73,2.47,-22.3,25.4
2015-01-08 00:48:00,0.0,1.96504,0.00040,407.159,0.041,0.0344,0.0014,140.000,45.000,29128.39324,1.96567,407.326,32.246,45.068,45.000,0.00,0.09,-272.69,-272.75,-6,193,-1,19.1,1.3,-36.1,19.5,2.3,-29.5,5.73,2.41,-22.3,25.4
2015-01-08 00:49:00,0.0,1.96522,0.00031,407.166,0.024,0.0349,0.0016,140.001,45.000,29132.66479,1.96591,407.336,32.246,45.068,45.000,0.00,0.09,-272.68,-272.75,-6,192,-1,19.1,1.3,-35.7,19.5,2.3,-29.4,5.73,2.35,-22.3,25.4
2015-01-08 00:50:00,0.0,1.96473,0.00050,407.163,0.036,0.0357,0.0016,140.002,45.000,29136.56077,1.96544,407.338,32.250,45.068,45.000,0.00,0.09,-272.68,-272.74,-6,194,-1,19.1,1.3,-35.8,19.5,2.3,-29.4,5.73,2.32,-22.3,25.4
2015-01-08 00:51:00,0.0,1.96371,0.00039,407.140,0.028,0.0350,0.0017,139.999,45.000,29133.41151,1.96440,407.313,32.250,45.068,45.000,0.00,0.09,-272.68,-272.74,-6,193,-1,19.0,1.3,-35.8,19.5,2.4,-29.4,5.73,2.35,-22.3,25.4
2015-01-08 00:52:00,0.0,1.96349,0.00042,407.157,0.026,0.0357,0.0019,140.000,45.000,29130.69745,1.96422,407.330,32.249,45.068,45.000,0.00,0.09,-272.68,-272.74,-6,192,-1,19.1,1.3,-35.6,19.5,2.3,-29.4,5.73,2.35,-22.3,25.4
2015-01-08 00:53:00,0.0,1.96354,0.00039,407.163,0.034,0.0370,0.0019,139.999,45.000,29128.02963,1.96423,407.344,32.251,45.068,45.000,0.00,0.09,-272.69,-272.74,-6,192,-1,19.1,1.3,-35.4,19.5,2.4,-29.4,5.73,2.40,-22.3,25.4
2015-01-08 00:54:00,0.0,1.96326,0.00030,407.133,0.036,0.0370,0.0017,140.000,45.000,29130.90557,1.96399,407.317,32.250,45.068,45.000,0.00,0.09,-272.69,-272.73,-6,193,-1,19.1,1.4,-35.2,19.5,2.3,-29.5,5.73,2.44,-22.3,25.4
2015-01-08 00:55:00,0.0,1.96332,0.00029,407.142,0.043,0.0366,0.0020,140.002,45.000,29129.34425,1.96403,407.319,32.258,45.068,45.000,0.00,0.09,-272.69,-272.74,-6,191,-1,19.1,1.4,-35.3,19.5,2.3,-29.5,5.73,2.47,-22.3,25.4
2015-01-08 00:56:00,0.0,1.96297,0.00020,407.067,0.050,0.0365,0.0021,139.999,45.000,29129.95098,1.96370,407.247,32.266,45.068,45.000,0.00,0.09,-272.69,-272.74,-6,192,-1,19.1,1.4,-35.2,19.5,2.3,-29.4,5.73,2.47,-22.3,25.4
2015-01-08 00:57:00,0.0,1.96287,0.00050,407.049,0.035,0.0371,0.0012,139.997,45.000,29122.91571,1.96360,407.231,32.291,45.068,45.000,0.00,0.09,-272.68,-272.75,-6,192,-1,19.1,1.4,-35.2,19.5,2.3,-29.4,5.73,2.44,-22.3,25.4
2015-01-08 00:58:00,0.0,1.96291,0.00043,407.022,0.041,0.0360,0.0015,139.999,45.000,29119.12748,1.96359,407.199,32.286,45.067,45.000,0.00,0.09,-272.69,-272.75,-6,191,-1,19.1,1.4,-35.2,19.5,2.3,-29.4,5.73,2.40,-22.3,25.4
2015-01-08 00:59:00,0.0,1.96271,0.00035,406.969,0.035,0.0357,0.0020,140.001,45.000,29117.82630,1.96342,407.144,32.286,45.068,45.000,0.00,0.09,-272.69,-272.75,-6,191,-1,19.1,1.4,-35.3,19.5,2.3,-29.5,5.73,2.38,-22.3,25.4
2015-01-08 01:00:00,0.0,1.96242,0.00025,406.959,0.032,0.0365,0.0025,139.998,45.000,29115.66309,1.96310,407.138,32.301,45.068,45.000,0.00,0.09,-272.68,-272.75,-6,191,-1,19.1,1.4,-35.3,19.5,2.3,-29.5,5.73,2.35,-22.3,25.4
2015-01-08 01:01:00,0.0,1.96247,0.00029,406.923,0.028,0.0356,0.0018,140.000,45.000,29118.05452,1.96317,407.097,32.309,45.068,45.000,0.00,0.09,-272.68,-272.75,-6,190,-1,19.1,1.3,-35.5,19.5,2.4,-29.4,5.73,2.34,-22.3,25.4
2015-01-08 01:02:00,0.0,1.96276,0.00037,406.967,0.032,0.0361,0.0019,140.001,45.000,29116.75613,1.96343,407.143,32.313,45.067,45.000,0.00,0.09,-272.69,-272.75,-6,191,-1,19.1,1.3,-35.6,19.5,2.3,-29.4,5.73,2.34,-22.3,25.4
2015-01-08 01:03:00,0.0,1.96302,0.00029,406.994,0.020,0.0352,0.0014,139.999,45.000,29116.91559,1.96371,407.166,32.314,45.068,45.000,0.00,0.09,-272.69,-272.74,-6,191,-1,19.1,1.3,-35.6,19.5,2.4,-29.4,5.73,2.36,-22.3,25.4
2015-01-08 01:04:00,0.0,1.96328,0.00040,407.010,0.030,0.0351,0.0014,140.000,45.000,29119.54673,1.96394,407.182,32.312,45.068,45.000,0.00,0.09,-272.69,-272.74,-6,191,-1,19.1,1.3,-35.6,19.5,2.3,-29.5,5.73,2.39,-22.3,25.4
2015-01-08 01:05:00,0.0,1.96357,0.00036,407.065,0.041,0.0358,0.0016,140.000,45.000,29121.66612,1.96423,407.238,32.313,45.067,45.000,0.00,0.09,-272.70,-272.73,-6,192,-1,19.1,1.3,-35.8,19.5,2.3,-29.5,5.73,2.44,-22.3,25.4
2015-01-08 01:06:00,0.0,1.96373,0.00034,407.120,0.033,0.0364,0.0021,139.997,45.000,29119.51977,1.96444,407.297,32.313,45.068,45.000,0.00,0.09,-272.69,-272.74,-7,191,-1,19.1,1.3,-35.7,19.5,2.4,-29.4,5.73,2.47,-22.3,25.4
2015-01-08 01:07:00,0.0,1.96391,0.00040,407.127,0.034,0.0355,0.0015,140.000,45.000,29122.47765,1.96456,407.302,32.313,45.068,45.000,0.00,0.09,-272.69,-272.74,-6,192,-1,19.1,1.3,-35.6,19.5,2.3,-29.4,5.73,2.47,-22.4,25.4
2015-01-08 01:08:00,0.0,1.96404,0.00032,407.157,0.034,0.0354,0.0018,140.002,45.000,29120.07309,1.96475,407.330,32.306,45.068,45.000,0.00,0.09,-272.68,-272.74,-7,191,-1,19.1,1.3,-35.6,19.5,2.3,-29.4,5.73,2.45,-22.3,25.4
2015-01-08 01:09:00,0.0,1.96423,0.00040,407.186,0.027,0.0356,0.0021,140.000,45.000,29117.74494,1.96492,407.359,32.296,45.068,45.000,0.00,0.09,-272.69,-272.75,-7,191,-1,19.1,1.3,-35.6,19.5,2.3,-29.5,5.73,2.41,-22.3,25.4
2015-01-08 01:10:00,0.0,1.96445,0.00034,407.189,0.033,0.0359,0.0019,139.999,45.000,29116.47036,1.96511,407.364,32.262,45.068,45.000,0.00,0.09,-272.68,-272.75,-6,191,-1,19.1,1.3,-35.6,19.5,2.3,-29.5,5.73,2.39,-22.4,25.4
2015-01-08 01:11:00,0.0,1.96460,0.00040,407.230,0.038,0.0359,0.0019,140.002,45.000,29120.59139,1.96530,407.405,32.251,45.068,45.000,0.00,0.09,-272.68,-272.75,-6,192,-1,19.1,1.3,-35.5,19.5,2.3,-29.4,5.73,2.35,-22.3,25.4
2015-01-08 01:12:00,0.0,1.96501,0.00044,407.244,0.032,0.0367,0.0017,140.000,45.000,29122.44106,1.96573,407.424,32.249,45.068,45.000,0.00,0.09,-272.69,-272.75,-6,191,-1,19.1,1.4,-35.3,19.5,2.3,-29.4,5.73,2.35,-22.4,25.4
2015-01-08 01:13:00,0.0,1.96533,0.00051,407.272,0.030,0.0378,0.0012,139.999,45.000,29126.06998,1.96604,407.457,32.251,45.068,45.000,0.00,0.09,-272.69,-272.75,-6,193,-1,19.1,1.4,-35.1,19.5,2.3,-29.4,5.73,2.37,-22.4,25.4
2015-01-08 01:14:00,0.0,1.96511,0.00030,407.283,0.039,0.0372,0.0015,139.999,45.000,29117.04224,1.96580,407.465,32.255,45.068,45.000,0.00,0.09,-272.69,-272.73,-6,191,-1,19.1,1.4,-35.0,19.5,2.3,-29.4,5.73,2.38,-22.3,25.4
2015-01-08 01:15:00,0.0,1.96575,0.00047,407.321,0.025,0.0371,0.0013,140.003,45.000,29117.28251,1.96645,407.503,32.257,45.068,45.000,0.00,0.09,-272.70,-272.74,-6,191,-1,19.1,1.4,-35.0,19.5,2.3,-29.5,5.73,2.42,-22.3,25.4
2015-01-08 01:16:00,0.0,1.96607,0.00031,407.354,0.044,0.0370,0.0014,139.999,45.000,29116.49299,1.96678,407.535,32.250,45.068,45.000,0.00,0.09,-272.69,-272.74,-6,191,-1,19.1,1.4,-35.1,19.5,2.4,-29.4,5.73,2.45,-22.3,25.4
2015-01-08 01:17:00,0.0,1.96614,0.00048,407.335,0.033,0.0373,0.0019,139.999,45.000,29117.42182,1.96687,407.517,32.250,45.068,45.000,0.00,0.09,-272.68,-272.73,-6,192,-1,19.1,1.4,-35.1,19.5,2.4,-29.4,5.73,2.46,-22.3,25.4
2015-01-08 01:18:00,0.0,1.96597,0.00045,407.331,0.031,0.0366,0.0018,139.998,45.000,29116.44023,1.96669,407.511,32.251,45.068,45.000,0.00,0.09,-272.69,-272.74,-6,190,-1,19.1,1.4,-35.1,19.5,2.3,-29.5,5.73,2.56,-22.3,25.4
2015-01-08 01:19:00,0.0,1.96593,0.00034,407.336,0.036,0.0363,0.0015,140.001,45.000,29120.60070,1.96663,407.513,32.250,45.068,45.000,0.00,0.09,-272.68,-272.74,-6,192,-1,19.1,1.4,-35.2,19.5,2.3,-29.5,5.73,2.50,-22.4,25.4
2015-01-08 01:20:00,0.0,1.96626,0.00027,407.332,0.030,0.0372,0.0022,139.995,45.000,29122.78480,1.96698,407.515,32.257,45.068,45.000,0.00,0.09,-272.67,-272.75,-6,192,-1,19.1,1.4,-35.2,19.5,2.4,-29.4,5.73,2.42,-22.4,25.4
2015-01-08 01:21:00,0.0,1.96596,0.00044,407.335,0.037,0.0367,0.0023,139.999,45.000,29123.30619,1.96668,407.515,32.305,45.068,45.000,0.00,0.09,-272.68,-272.74,-6,192,-1,19.1,1.4,-35.2,19.5,2.3,-29.5,5.73,2.36,-22.3,25.4
2015-01-08 01:22:00,0.0,1.96591,0.00042,407.335,0.028,0.0371,0.0021,139.999,45.000,29123.07936,1.96662,407.516,32.283,45.067,45.000,0.00,0.09,-272.69,-272.75,-6,192,-1,19.1,1.4,-35.1,19.5,2.3,-29.4,5.73,2.33,-22.3,25.4
2015-01-08 01:23:00,0.0,1.96572,0.00047,407.316,0.033,0.0365,0.0018,140.001,45.000,29124.93504,1.96646,407.496,32.266,45.068,45.000,0.00,0.09,-272.69,-272.74,-6,192,-1,19.1,1.4,-35.2,19.5,2.4,-29.4,5.73,2.34,-22.3,25.4
2015-01-08 01:24:00,0.0,1.96503,0.00038,407.323,0.033,0.0374,0.0015,139.999,45.000,29129.78218,1.96573,407.505,32.251,45.068,45.000,0.00,0.09,-272.68,-272.74,-6,192,-1,19.1,1.4,-35.1,19.5,2.3,-29.5,5.73,2.39,-22.3,25.4
2015-01-08 01:25:00,0.0,1.96523,0.00031,407.343,0.032,0.0375,0.0015,140.000,45.000,29124.83177,1.96596,407.525,32.252,45.068,45.000,0.00,0.09,-272.69,-272.74,-6,192,-1,19.0,1.4,-34.8,19.5,2.4,-29.4,5.73,2.42,-22.4,25.4
2015-01-08 01:26:00,0.0,1.96523,0.00035,407.336,0.029,0.0383,0.0015,139.997,45.000,29123.79927,1.96598,407.525,32.250,45.068,45.000,0.00,0.09,-272.70,-272.74,-6,192,-1,19.1,1.4,-34.8,19.5,2.4,-29.4,5.73,2.46,-22.3,25.4
2015-01-08 01:27:00,0.0,1.96517,0.00035,407.352,0.029,0.0375,0.0019,139.998,45.000,29125.38962,1.96590,407.535,32.250,45.068,45.000,0.00,0.09,-272.69,-272.74,-6,192,-1,19.0,1.4,-34.8,19.5,2.4,-29.4,5.73,2.49,-22.3,25.4
2015-01-08 01:28:00,0.0,1.96498,0.00047,407.340,0.029,0.0385,0.0012,139.997,45.000,29124.50566,1.96572,407.529,32.249,45.068,45.000,0.00,0.09,-272.69,-272.74,-6,192,-1,19.1,1.4,-34.8,19.5,2.4,-29.3,5.73,2.48,-22.4,25.4
2015-01-08 01:29:00,0.0,1.96509,0.00033,407.352,0.029,0.0388,0.0020,139.995,45.000,29127.48564,1.96585,407.542,32.250,45.068,45.000,0.00,0.09,-272.69,-272.75,-7,193,-1,19.1,1.4,-34.8,19.5,2.4,-29.3,5.73,2.47,-22.3,25.4
2015-01-08 01:30:00,0.0,1.96509,0.00039,407.327,0.032,0.0383,0.0018,139.999,45.000,29126.89060,1.96584,407.514,32.246,45.068,45.000,0.00,0.09,-272.68,-272.75,-7,192,-1,19.1,1.4,-34.7,19.5,2.4,-29.4,5.73,2.39,-22.3,25.4
2015-01-08 01:31:00,0.0,1.96498,0.00038,407.348,0.035,0.0384,0.0016,140.002,45.000,29127.67769,1.96569,407.535,32.250,45.068,45.000,0.00,0.09,-272.68,-272.75,-7,192,-1,19.1,1.4,-34.8,19.5,2.4,-29.3,5.73,2.38,-22.3,25.4
2015-01-08 01:32:00,0.0,1.96525,0.00029,407.360,0.027,0.0374,0.0016,139.996,45.000,29130.09035,1.96601,407.543,32.250,45.068,45.000,0.00,0.09,-272.68,-272.74,-7,193,-1,19.1,1.4,-35.1,19.5,2.4,-29.4,5.73,2.36,-22.3,25.4
2015-01-08 01:33:00,0.0,1.96512,0.00033,407.363,0.023,0.0363,0.0015,140.000,45.000,29132.63700,1.96582,407.541,32.250,45.068,45.000,0.00,0.09,-272.69,-272.74,-6,193,-1,19.1,1.4,-35.2,19.5,2.4,-29.3,5.73,2.37,-22.3,25.4
2015-01-08 01:34:00,0.0,1.96530,0.00032,407.370,0.023,0.0368,0.0017,140.000,45.000,29129.12686,1.96599,407.550,32.250,45.068,45.000,0.00,0.09,-272.68,-272.74,-6,192,-1,19.1,1.4,-35.2,19.5,2.4,-29.3,5.73,2.42,-22.3,25.4
2015-01-08 01:35:00,0.0,1.96528,0.00038,407.355,0.032,0.0376,0.0026,140.002,45.000,29129.41663,1.96601,407.539,32.271,45.068,45.000,0.00,0.09,-272.69,-272.74,-6,192,-1,19.1,1.4,-35.2,19.5,2.4,-29.3,5.73,2.51,-22.4,25.4
2015-01-08 01:36:00,0.0,1.96566,0.00028,407.370,0.028,0.0358,0.0017,139.999,45.000,29122.95556,1.96634,407.545,32.308,45.068,45.000,0.00,0.09,-272.69,-272.75,-6,192,-1,19.1,1.3,-35.4,19.5,2.4,-29.3,5.73,2.48,-22.3,25.4
2015-01-08 01:37:00,0.0,1.96559,0.00041,407.430,0.028,0.0360,0.0015,139.998,45.000,29124.82725,1.96629,407.605,32.313,45.068,45.000,0.00,0.09,-272.68,-272.75,-6,192,-1,19.1,1.4,-35.4,19.5,2.4,-29.3,5.73,2.47,-22.3,25.4
2015-01-08 01:38:00,0.0,1.96577,0.00038,407.451,0.027,0.0362,0.0020,140.002,45.000,29118.90854,1.96644,407.628,32.313,45.067,45.000,0.00,0.09,-272.68,-272.74,-6,191,-1,19.1,1.4,-35.4,19.5,2.4,-29.3,5.73,2.40,-22.3,25.4
2015-01-08 01:39:00,0.0,1.96564,0.00039,407.414,0.036,0.0363,0.0015,139.997,45.000,29118.53510,1.96638,407.591,32.312,45.067,45.000,0.00,0.09,-272.69,-272.75,-6,191,-1,19.1,1.4,-35.2,19.5,2.4,-29.3,5.73,2.37,-22.3,25.4
2015-01-08 01:40:00,0.0,1.96561,0.00043,407.439,0.029,0.0388,0.0013,140.001,45.000,29117.46006,1.96633,407.629,32.313,45.068,45.000,0.00,0.09,-272.68,-272.75,-6,192,-1,19.1,1.4,-34.9,19.5,2.4,-29.3,5.73,2.37,-22.3,25.4
2015-01-08 01:41:00,0.0,1.96539,0.00056,407.402,0.068,0.0383,0.0015,139.999,45.000,29118.25862,1.96612,407.589,32.311,45.068,45.000,0.00,0.09,-272.68,-272.74,-6,191,-1,19.1,1.5,-34.6,19.5,2.4,-29.3,5.73,2.32,-22.3,25.4
2015-01-08 01:42:00,0.0,1.96361,0.00130,407.254,0.102,0.0403,0.0024,139.999,45.000,29117.73531,1.96449,407.455,32.313,45.068,45.000,0.00,0.09,-272.69,-272.74,-6,191,-1,19.1,1.5,-34.3,19.5,2.4,-29.3,5.73,2.36,-22.3,25.4
2015-01-08 01:43:00,0.0,1.96373,0.00045,407.229,0.039,0.0429,0.0023,139.998,45.000,29114.17273,1.96455,407.440,32.328,45.068,45.000,0.00,0.09,-272.70,-272.74,-7,191,-1,19.1,1.6,-33.9,19.5,2.4,-29.3,5.73,2.40,-22.3,25.4
2015-01-08 01:44:00,0.0,1.96297,0.00056,407.083,0.074,0.0401,0.0022,140.000,45.000,29116.30684,1.96378,407.282,32.323,45.068,45.000,0.00,0.09,-272.69,-272.74,-7,191,-1,19.1,1.5,-34.2,19.5,2.4,-29.3,5.73,2.44,-22.3,25.4
2015-01-08 01:45:00,0.0,1.96209,0.00041,406.912,0.039,0.0381,0.0023,139.998,45.000,29115.10645,1.96283,407.100,32.317,45.068,45.000,0.00,0.09,-272.69,-272.74,-7,191,-1,19.1,1.4,-34.7,19.5,2.4,-29.3,5.73,2.48,-22.3,25.4
2015-01-08 01:46:00,0.0,1.96195,0.00035,406.875,0.036,0.0371,0.0016,140.000,45.000,29114.16356,1.96264,407.055,32.313,45.068,45.000,0.00,0.09,-272.68,-272.75,-6,191,-1,19.1,1.4,-35.1,19.5,2.4,-29.3,5.73,2.48,-22.3,25.4